Content
SEND FEEDBACK

Daily
Averages
Monthly
Summary
United States of America

NEW YORK - CENTRAL PARK, NEW YORK


Home > North America > United States > New York
Elevation: 14 feet     Latitude: 40 47N     Longitude: 073 58W

WEATHER
 
SELECT A DAY
Number of Records: 148,014;   Date Range: 11/1/95 - 7/22/14
 
SHARE

PRINT THIS DATA

[ ← Previous Day ]
WEATHER ALMANAC - MARCH 8, 2013
[ Next Day → ]
[ °C ]   °F
Weather ElementAverageHighLow
Temperature34.4 °F42.1 °F (8:51 pm)30.9 °F (6:51 am)
Dewpoint29.8 °F32 °F (1:51 pm)25 °F (10:51 pm)
Humidity84.6 %96 % (6:51 am)53 % (10:51 pm)
Barometer30.05 in30.18 in (9:51 pm)30.00 in (3:51 am)
Wind Speed7 mph15 mph (6:51 pm)
Wind Gust26.5 mph (6:51 pm)
Weather ElementAverage
Visibility4.1 mi
Wind DirectionSSE (144.5 °)

Weather ElementTotal
Precipitation0.76 in
Heating Degree Days28.5 (Base 65)
Averaged from 42 records on March 8, 2013
WEATHER CONDITIONS BREAKOUT
WIND DIRECTION BREAKOUT
WEATHER BY HOUR - MARCH 8, 2013
[ °C ]   °F
Local TimeTemperatureDewpointHumidityBarometerVisibilityWind DirectionWind SpeedGust SpeedPrecipitationEventsConditions
12:27 AM33.1 °F30.9 °F92 %30.07 in2.5 miVariable5.8 mph0.01 inSnowLight Snow
12:39 AM33.1 °F30.0 °F89 %30.07 in4.0 miNorth0.01 inSnowLight Snow
12:51 AM33.1 °F30.0 °F89 %30.05 in3.0 miNorth (350°)6.9 mph0.01 inSnowLight Snow
1:19 AM33.1 °F30.0 °F89 %30.07 in4.0 miVariable4.6 mph0.01 inSnowLight Snow
1:51 AM33.1 °F30.0 °F89 %30.04 in3.0 miNorth (350°)5.8 mph0.01 inSnowLight Snow
2:33 AM33.1 °F30.0 °F89 %30.04 in3.0 miNorth (360°)9.2 mph17.3 mph0.01 inSnowLight Snow
2:51 AM32.0 °F30.0 °F92 %30.02 in1.8 miNorth0.01 inSnowLight Snow
3:07 AM32.0 °F30.0 °F92 %30.03 in1.2 miVariable3.5 mph0.01 inSnowLight Snow
3:25 AM32.0 °F30.0 °F92 %30.03 in2.0 miVariable4.6 mph16.1 mph0.01 inSnowLight Snow
3:49 AM32.0 °F30.2 °F93 %30.02 in2.5 miNNW (340°)6.9 mph0.01 inSnowLight Snow
3:51 AM32.0 °F30.0 °F92 %30.00 in2.5 miNorth (360°)9.2 mph0.01 inSnowLight Snow
4:05 AM32.0 °F30.0 °F92 %30.02 in2.0 miVariable6.9 mph0.01 inSnowLight Snow
4:15 AM32.0 °F30.0 °F92 %30.02 in2.0 miNorth (360°)8.1 mph0.01 inSnowLight Snow
4:26 AM32.0 °F30.0 °F92 %30.02 in1.8 miNorth (360°)8.1 mph17.3 mph0.01 inSnowLight Snow
4:51 AM32.0 °F30.0 °F92 %30.00 in1.5 miVariable6.9 mph0.02 inSnowLight Snow
5:27 AM32.0 °F30.0 °F92 %30.02 in0.8 miNorth (360°)8.1 mph17.3 mph0.02 inSnowLight Snow
5:35 AM32.0 °F30.0 °F92 %30.02 in1.0 miNorth (350°)9.2 mph18.4 mph0.02 inSnowLight Snow
5:46 AM32.0 °F30.2 °F93 %30.02 in0.8 miNorth (360°)10.4 mph0.03 inSnowLight Snow
5:51 AM32.0 °F30.0 °F92 %30.00 in0.8 miVariable6.9 mph0.03 inSnowLight Snow
6:51 AM30.9 °F30.0 °F96 %30.01 in0.2 miNorth (350°)10.4 mph17.3 mph0.05 inFog-SnowSnow
7:51 AM30.9 °F30.0 °F96 %30.01 in0.2 miVariable5.8 mph18.4 mph0.05 inFog-SnowSnow
8:51 AM32.0 °F30.0 °F92 %30.02 in0.2 miNorth (360°)9.2 mph18.4 mph0.09 inFog-SnowSnow
9:51 AM32.0 °F30.0 °F92 %30.03 in0.2 miVariable6.9 mph19.6 mph0.10 inFog-SnowSnow
10:51 AM32.0 °F30.0 °F92 %30.03 in0.2 miNorth (360°)10.4 mph19.6 mph0.07 inFog-SnowSnow
11:51 AM33.8 °F30.2 °F87 %30.04 in1.0 miVariable3.5 mph0.04 inSnowLight Snow
12:38 PM33.1 °F30.9 °F92 %30.05 in1.0 miCalm0.03 inSnowLight Snow
12:51 PM33.1 °F30.9 °F92 %30.03 in1.5 miVariable4.6 mph0.04 inSnowLight Snow
1:22 PM33.1 °F30.9 °F92 %30.05 in2.5 miCalm0.01 inSnowLight Snow
1:25 PM33.1 °F30.9 °F92 %30.05 in3.0 miNW (320°)3.5 mph0.01 inSnowLight Snow
1:51 PM34.0 °F32.0 °F92 %30.04 in6.0 miVariable3.5 mph0.01 inOvercast
2:18 PM35.1 °F30.9 °F85 %30.05 in8.0 miNorth (350°)6.9 mphOvercast
2:51 PM36.0 °F32.0 °F86 %30.04 in10.0 miVariable5.8 mph18.4 mphOvercast
2:59 PM36.0 °F32.0 °F86 %30.06 in10.0 miVariable6.9 mphOvercast
3:51 PM37.0 °F30.9 °F79 %30.04 in10.0 miVariable5.8 mphOvercast
4:51 PM39.0 °F28.9 °F67 %30.07 in10.0 miNorth (360°)12.7 mph20.7 mphOvercast
5:51 PM41.0 °F28.0 °F60 %30.11 in10.0 miNNE (20°)10.4 mph25.3 mphOvercast
6:51 PM41.0 °F28.0 °F60 %30.14 in10.0 miNNE (20°)15.0 mph26.5 mphOvercast
7:51 PM41.0 °F28.0 °F60 %30.16 in10.0 miNorth (10°)9.2 mph19.6 mphMostly Cloudy
8:51 PM42.1 °F27.0 °F55 %30.17 in10.0 miNNE (20°)9.2 mph20.7 mphOvercast
9:51 PM41.0 °F27.0 °F57 %30.18 in10.0 miNorth (350°)8.1 mph17.3 mphOvercast
10:51 PM41.0 °F25.0 °F53 %30.18 in10.0 miVariable5.8 mphMostly Cloudy
11:51 PM39.9 °F25.0 °F55 %30.18 in10.0 miVariable5.8 mph19.6 mphClear
Hourly data recorded from KNYC, located miles away from New York - Central Park, New York







STORIES FROM OUR PARTNERS